Weather History for Fort Drum, NY

Change the Weather History Date:

Monday, March 3, 2014

  Actual Average Record
Temperature  
Mean Temperature 2 °F -  
Max Temperature 9 °F 31 °F 53 °F (2002)
Min Temperature -5 °F 14 °F -14 °F (2003)
Degree Days  
Heating Degree Days 63    
Moisture  
Dew Point -9 °F    
Average Humidity 64    
Maximum Humidity 84    
Minimum Humidity 42    
Precipitation  
Precipitation 0.00 in - - ()
Sea Level Pressure  
Sea Level Pressure 30.31 in    
Wind  
Wind Speed 7 mph (WSW)    
Max Wind Speed 12 mph    
Max Gust Speed -    
Visibility 10 miles    
Events      
Averages and records for this station are not official NWS values.
T = Trace of Precipitation, MM = Missing Value Source: NWS Daily Summary

Daily Weather History Graph

Daily Weather History Graph

Search for Another Location

Airport:

Trip Planner

Search our weather history database for the weather conditions in past years. The results will help you decide how hot, cold, wet, or windy it might be!

Date:

Astronomy

Mar. 03, 2014 Rise Set
Actual Time 6:36 AM EST 5:53 PM EST
Civil Twilight 6:07 AM EST 6:22 PM EST
Nautical Twilight 5:34 AM EST 6:56 PM EST
Astronomical Twilight 5:00 AM EST 7:29 PM EST
Moon 7:36 AM EST (3/3) 9:02 PM EST (3/3)
Length of Visible Light 12h 15m
Length of Day
11h 17m
Waxing Crescent, 8% of the Moon is Illuminated
Mar 3
Waxing Crescent
Mar 8
First Quarter
Mar 16
Full
Mar 23
Last Quarter
Mar 30
New

Hourly Weather History & Observations

Time (EST) Temp. Windchill Dew Point Humidity Pressure Visibility Wind Dir Wind Speed Gust Speed Precip Events Conditions
12:58 AM 2.7 °F -12.0 °F -4.7 °F 71% 30.16 in 10.0 mi WSW 9.2 mph - N/A   Clear
1:58 AM 0.7 °F -13.3 °F -6.3 °F 72% 30.17 in 10.0 mi WSW 8.1 mph - N/A   Clear
2:58 AM -1.1 °F -14.3 °F -9.0 °F 69% 30.20 in 10.0 mi West 6.9 mph - N/A   Clear
3:58 AM -2.9 °F -16.5 °F -9.4 °F 74% 30.20 in 10.0 mi WSW 6.9 mph - N/A   Clear
4:58 AM -3.1 °F -16.7 °F -8.7 °F 77% 30.22 in 10.0 mi WSW 6.9 mph - N/A   Clear
5:58 AM -4.0 °F -17.8 °F -8.5 °F 81% 30.24 in 10.0 mi WSW 6.9 mph - N/A   Clear
6:58 AM -5.3 °F -16.0 °F -9.0 °F 84% 30.27 in 10.0 mi West 4.6 mph - N/A   Clear
7:58 AM -2.0 °F -12.2 °F -8.7 °F 73% 30.31 in 10.0 mi West 4.6 mph - N/A   Clear
8:58 AM -0.8 °F -10.8 °F -9.6 °F 66% 30.31 in 10.0 mi Variable 4.6 mph - N/A   Clear
9:58 AM 1.6 °F -13.3 °F -8.9 °F 62% 30.31 in 10.0 mi North 9.2 mph - N/A   Clear
10:58 AM 3.7 °F -7.1 °F -10.1 °F 53% 30.32 in 10.0 mi Variable 5.8 mph - N/A   Clear
11:58 AM 6.1 °F - -9.9 °F 48% 30.32 in 10.0 mi Variable 1.2 mph - N/A   Clear
12:58 PM 7.9 °F -2.2 °F -10.3 °F 43% 30.33 in 10.0 mi NW 5.8 mph - N/A   Clear
1:58 PM 8.8 °F -2.4 °F -10.1 °F 42% 30.35 in 10.0 mi Variable 6.9 mph - N/A   Clear
2:58 PM 9.1 °F -5.6 °F -9.0 °F 44% 30.35 in 10.0 mi West 11.5 mph - N/A   Clear
3:58 PM 7.9 °F -5.5 °F -9.0 °F 46% 30.36 in 10.0 mi West 9.2 mph - N/A   Clear
4:58 PM 7.2 °F -4.3 °F -8.7 °F 48% 30.37 in 10.0 mi West 6.9 mph - N/A   Clear
5:58 PM 4.6 °F -4.5 °F -5.1 °F 64% 30.38 in 10.0 mi West 4.6 mph - N/A   Clear
6:58 PM 2.5 °F -7.0 °F -5.4 °F 70% 30.38 in 10.0 mi SW 4.6 mph - N/A   Clear
7:58 PM -3.1 °F -17.9 °F -9.4 °F 74% 30.38 in 10.0 mi South 8.1 mph - N/A   Clear
8:58 PM -2.2 °F -14.2 °F -6.5 °F 82% 30.37 in 10.0 mi SSW 5.8 mph - N/A   Clear
9:58 PM 2.3 °F -11.4 °F -6.2 °F 68% 30.38 in 10.0 mi West 8.1 mph - N/A   Clear
10:58 PM 1.0 °F -11.7 °F -10.1 °F 60% 30.37 in 10.0 mi WSW 6.9 mph - N/A   Clear
11:58 PM 1.0 °F -12.9 °F -11.6 °F 56% 30.37 in 10.0 mi SW 8.1 mph - N/A   Clear